Time,TemperatureF,DewpointF,PressureIn,WindDirection,WindDirectionDegrees,WindSpeedMPH,WindSpeedGustMPH,Humidity,HourlyPrecipIn,Conditions,Clouds,dailyrainin,SoftwareType,DateUTC
2013-07-07 00:02:00,81.3,74.2,29.87,SSE,166,5.8,5.8,79,0.00,CLR,,0.00,WeatherDisplay:10.37,2013-07-07 05:02:00,
2013-07-07 00:07:00,81.2,74.1,29.87,SSE,157,6.9,6.9,79,0.00,CLR,,0.00,WeatherDisplay:10.37,2013-07-07 05:07:00,
2013-07-07 00:12:00,81.0,73.9,29.87,SSE,164,4.6,4.6,79,0.00,CLR,,0.00,WeatherDisplay:10.37,2013-07-07 05:12:00,
2013-07-07 00:17:00,80.9,74.1,29.87,SSE,159,5.8,5.8,80,0.00,CLR,,0.00,WeatherDisplay:10.37,2013-07-07 05:17:00,
2013-07-07 00:22:00,80.8,74.0,29.87,SSE,149,3.5,3.5,80,0.00,CLR,,0.00,WeatherDisplay:10.37,2013-07-07 05:22:00,
2013-07-07 00:27:00,80.6,73.9,29.87,SSE,159,3.5,3.5,80,0.00,CLR,,0.00,WeatherDisplay:10.37,2013-07-07 05:27:00,
2013-07-07 00:32:00,80.5,73.8,29.87,SSE,159,3.5,3.5,80,0.00,CLR,,0.00,WeatherDisplay:10.37,2013-07-07 05:32:00,
2013-07-07 00:37:00,80.3,73.9,29.87,South,190,3.5,3.5,81,0.00,CLR,,0.00,WeatherDisplay:10.37,2013-07-07 05:37:00,
2013-07-07 00:42:00,80.1,74.1,29.87,South,179,3.5,3.5,82,0.00,CLR,,0.00,WeatherDisplay:10.37,2013-07-07 05:42:00,
2013-07-07 00:47:00,79.8,73.8,29.87,SSW,208,1.1,0.0,82,0.00,CLR,,0.00,WeatherDisplay:10.37,2013-07-07 05:47:00,
2013-07-07 00:52:00,79.7,74.1,29.87,SSE,166,2.3,2.3,83,0.00,CLR,,0.00,WeatherDisplay:10.37,2013-07-07 05:52:00,
2013-07-07 00:57:00,79.6,74.0,29.87,South,174,0.0,0.0,83,0.00,CLR,,0.00,WeatherDisplay:10.37,2013-07-07 05:57:00,
2013-07-07 01:02:00,79.4,73.8,29.87,South,173,0.0,0.0,83,0.00,CLR,,0.00,WeatherDisplay:10.37,2013-07-07 06:02:00,
2013-07-07 01:07:00,79.3,74.0,29.87,SE,145,0.0,0.0,84,0.00,CLR,,0.00,WeatherDisplay:10.37,2013-07-07 06:07:00,
2013-07-07 01:12:00,79.2,73.9,29.86,SE,145,0.0,0.0,84,0.00,CLR,,0.00,WeatherDisplay:10.37,2013-07-07 06:12:00,
2013-07-07 01:17:00,79.2,74.3,29.86,SSE,150,0.0,0.0,85,0.00,CLR,,0.00,WeatherDisplay:10.37,2013-07-07 06:17:00,
2013-07-07 01:22:00,79.1,74.2,29.86,SE,128,0.0,0.0,85,0.00,CLR,,0.00,WeatherDisplay:10.37,2013-07-07 06:22:00,
2013-07-07 01:27:00,79.0,74.1,29.86,SE,126,0.0,0.0,85,0.00,CLR,,0.00,WeatherDisplay:10.37,2013-07-07 06:27:00,
2013-07-07 01:32:00,78.8,73.9,29.86,ESE,121,0.0,0.0,85,0.00,CLR,,0.00,WeatherDisplay:10.37,2013-07-07 06:32:00,
2013-07-07 01:37:00,78.7,73.8,29.86,ESE,121,0.0,0.0,85,0.00,CLR,,0.00,WeatherDisplay:10.37,2013-07-07 06:37:00,
2013-07-07 01:42:00,78.5,74.0,29.86,ESE,121,0.0,0.0,86,0.00,CLR,,0.00,WeatherDisplay:10.37,2013-07-07 06:42:00,
2013-07-07 01:47:00,78.1,73.6,29.86,ESE,122,0.0,0.0,86,0.00,CLR,,0.00,WeatherDisplay:10.37,2013-07-07 06:47:00,
2013-07-07 01:52:00,78.0,73.8,29.86,ESE,121,0.0,0.0,87,0.00,CLR,,0.00,WeatherDisplay:10.37,2013-07-07 06:52:00,
2013-07-07 01:57:00,78.0,73.8,29.85,ESE,121,0.0,0.0,87,0.00,CLR,,0.00,WeatherDisplay:10.37,2013-07-07 06:57:00,
2013-07-07 02:02:00,78.0,73.8,29.86,ESE,121,0.0,0.0,87,0.00,CLR,,0.00,WeatherDisplay:10.37,2013-07-07 07:02:00,
2013-07-07 02:07:00,77.9,73.7,29.86,ESE,121,0.0,0.0,87,0.00,CLR,,0.00,WeatherDisplay:10.37,2013-07-07 07:07:00,
2013-07-07 02:12:00,77.5,73.3,29.86,ESE,121,0.0,0.0,87,0.00,CLR,,0.00,WeatherDisplay:10.37,2013-07-07 07:12:00,
2013-07-07 02:17:00,77.1,72.9,29.86,ESE,121,0.0,0.0,87,0.00,CLR,,0.00,WeatherDisplay:10.37,2013-07-07 07:17:00,
2013-07-07 02:22:00,77.0,73.5,29.86,ESE,121,0.0,0.0,89,0.00,CLR,,0.00,WeatherDisplay:10.37,2013-07-07 07:22:00,
2013-07-07 02:27:00,77.0,73.2,29.86,ESE,121,0.0,0.0,88,0.00,CLR,,0.00,WeatherDisplay:10.37,2013-07-07 07:27:00,
2013-07-07 02:32:00,76.8,73.3,29.86,ESE,121,0.0,0.0,89,0.00,CLR,,0.00,WeatherDisplay:10.37,2013-07-07 07:32:00,
2013-07-07 02:37:00,76.9,73.4,29.87,ESE,122,0.0,0.0,89,0.00,CLR,,0.00,WeatherDisplay:10.37,2013-07-07 07:37:00,
2013-07-07 02:42:00,77.0,73.5,29.86,ESE,121,0.0,0.0,89,0.00,CLR,,0.00,WeatherDisplay:10.37,2013-07-07 07:42:00,
2013-07-07 02:47:00,77.2,73.7,29.86,ESE,121,0.0,0.0,89,0.00,CLR,,0.00,WeatherDisplay:10.37,2013-07-07 07:47:00,
2013-07-07 02:52:00,77.2,73.7,29.86,ESE,121,0.0,0.0,89,0.00,CLR,,0.00,WeatherDisplay:10.37,2013-07-07 07:52:00,
2013-07-07 02:57:00,77.5,74.0,29.86,ESE,121,0.0,0.0,89,0.00,CLR,,0.00,WeatherDisplay:10.37,2013-07-07 07:57:00,
2013-07-07 03:02:00,77.8,74.0,29.86,ESE,108,0.0,0.0,88,0.00,CLR,,0.00,WeatherDisplay:10.37,2013-07-07 08:02:00,
2013-07-07 03:07:00,77.8,73.6,29.86,NE,49,0.0,0.0,87,0.00,CLR,,0.00,WeatherDisplay:10.37,2013-07-07 08:07:00,
2013-07-07 03:12:00,77.6,73.4,29.86,NE,49,0.0,0.0,87,0.00,CLR,,0.00,WeatherDisplay:10.37,2013-07-07 08:12:00,
2013-07-07 03:17:00,77.4,73.6,29.86,North,352,0.0,0.0,88,0.00,CLR,,0.00,WeatherDisplay:10.37,2013-07-07 08:17:00,
2013-07-07 03:22:00,77.3,73.5,29.86,NE,41,0.0,0.0,88,0.00,CLR,,0.00,WeatherDisplay:10.37,2013-07-07 08:22:00,
2013-07-07 03:27:00,77.2,73.4,29.87,ENE,61,0.0,0.0,88,0.00,CLR,,0.00,WeatherDisplay:10.37,2013-07-07 08:27:00,
2013-07-07 03:32:00,76.8,73.0,29.87,ENE,75,0.0,0.0,88,0.00,CLR,,0.00,WeatherDisplay:10.37,2013-07-07 08:32:00,
2013-07-07 03:37:00,76.1,72.3,29.87,ENE,75,0.0,0.0,88,0.00,CLR,,0.00,WeatherDisplay:10.37,2013-07-07 08:37:00,
2013-07-07 03:42:00,75.5,72.0,29.87,ENE,77,0.0,0.0,89,0.00,CLR,,0.00,WeatherDisplay:10.37,2013-07-07 08:42:00,
2013-07-07 03:47:00,75.4,72.6,29.87,East,94,0.0,0.0,91,0.00,CLR,,0.00,WeatherDisplay:10.37,2013-07-07 08:47:00,
2013-07-07 03:52:00,75.4,72.6,29.88,East,83,2.3,2.3,91,0.00,CLR,,0.00,WeatherDisplay:10.37,2013-07-07 08:52:00,
2013-07-07 03:57:00,75.5,72.7,29.88,East,96,1.1,1.1,91,0.00,CLR,,0.00,WeatherDisplay:10.37,2013-07-07 08:57:00,
2013-07-07 04:02:00,75.7,72.9,29.88,ENE,58,2.3,2.3,91,0.00,CLR,,0.00,WeatherDisplay:10.37,2013-07-07 09:02:00,
2013-07-07 04:07:00,75.7,72.9,29.88,NE,53,0.0,0.0,91,0.00,CLR,,0.00,WeatherDisplay:10.37,2013-07-07 09:07:00,
2013-07-07 04:12:00,75.7,72.6,29.88,ENE,72,0.0,0.0,90,0.00,CLR,,0.00,WeatherDisplay:10.37,2013-07-07 09:12:00,
2013-07-07 04:17:00,75.7,72.9,29.88,ENE,57,0.0,0.0,91,0.00,CLR,,0.00,WeatherDisplay:10.37,2013-07-07 09:17:00,
2013-07-07 04:22:00,75.8,73.0,29.89,ENE,77,0.0,0.0,91,0.00,CLR,,0.00,WeatherDisplay:10.37,2013-07-07 09:22:00,
2013-07-07 04:27:00,75.8,73.0,29.89,ENE,72,0.0,0.0,91,0.00,CLR,,0.00,WeatherDisplay:10.37,2013-07-07 09:27:00,
2013-07-07 04:32:00,75.9,73.1,29.89,ENE,78,1.1,0.0,91,0.00,CLR,,0.00,WeatherDisplay:10.37,2013-07-07 09:32:00,
2013-07-07 04:37:00,75.9,73.1,29.88,ENE,78,0.0,0.3,91,0.00,CLR,,0.00,WeatherDisplay:10.37,2013-07-07 09:37:00,
2013-07-07 04:42:00,75.9,73.1,29.88,ENE,71,1.1,1.1,91,0.00,CLR,,0.00,WeatherDisplay:10.37,2013-07-07 09:42:00,
2013-07-07 04:47:00,75.9,73.1,29.88,ENE,70,0.0,0.0,91,0.00,CLR,,0.00,WeatherDisplay:10.37,2013-07-07 09:47:00,
2013-07-07 04:52:00,75.8,73.0,29.88,East,82,0.0,0.0,91,0.00,CLR,,0.00,WeatherDisplay:10.37,2013-07-07 09:52:00,
2013-07-07 04:57:00,75.8,73.0,29.88,ENE,59,1.1,0.0,91,0.00,CLR,,0.00,WeatherDisplay:10.37,2013-07-07 09:57:00,
2013-07-07 05:02:00,75.7,72.9,29.88,East,83,0.0,0.0,91,0.00,CLR,,0.00,WeatherDisplay:10.37,2013-07-07 10:02:00,
2013-07-07 05:07:00,75.6,73.1,29.88,East,79,1.1,1.1,92,0.00,CLR,,0.00,WeatherDisplay:10.37,2013-07-07 10:07:00,
2013-07-07 05:12:00,75.5,73.0,29.88,ENE,77,1.1,1.1,92,0.00,CLR,,0.00,WeatherDisplay:10.37,2013-07-07 10:12:00,
2013-07-07 05:17:00,75.4,72.9,29.88,ENE,77,3.5,3.5,92,0.00,CLR,,0.00,WeatherDisplay:10.37,2013-07-07 10:17:00,
2013-07-07 05:22:00,75.3,72.8,29.88,East,101,0.0,0.0,92,0.00,CLR,,0.00,WeatherDisplay:10.37,2013-07-07 10:22:00,
2013-07-07 05:27:00,75.2,72.7,29.88,ESE,111,0.0,0.0,92,0.00,CLR,,0.00,WeatherDisplay:10.37,2013-07-07 10:27:00,
2013-07-07 05:32:00,75.0,72.5,29.88,East,96,0.0,0.0,92,0.00,CLR,,0.00,WeatherDisplay:10.37,2013-07-07 10:32:00,
2013-07-07 05:37:00,74.9,72.7,29.88,East,97,0.0,0.0,93,0.00,CLR,,0.00,WeatherDisplay:10.37,2013-07-07 10:37:00,
2013-07-07 05:42:00,74.8,72.6,29.88,East,90,0.0,0.0,93,0.00,CLR,,0.00,WeatherDisplay:10.37,2013-07-07 10:42:00,
2013-07-07 05:47:00,74.8,72.6,29.89,East,98,2.3,2.3,93,0.00,CLR,,0.00,WeatherDisplay:10.37,2013-07-07 10:47:00,
2013-07-07 05:52:00,74.7,72.5,29.88,ENE,75,2.3,2.3,93,0.00,CLR,,0.00,WeatherDisplay:10.37,2013-07-07 10:52:00,
2013-07-07 05:57:00,74.6,72.4,29.89,East,85,3.5,3.5,93,0.00,CLR,,0.00,WeatherDisplay:10.37,2013-07-07 10:57:00,
2013-07-07 06:02:00,74.5,72.3,29.89,ESE,102,3.5,3.5,93,0.00,CLR,,0.00,WeatherDisplay:10.37,2013-07-07 11:02:00,
2013-07-07 06:07:00,74.5,72.3,29.89,ENE,68,3.5,3.5,93,0.00,CLR,,0.00,WeatherDisplay:10.37,2013-07-07 11:07:00,
2013-07-07 06:12:00,74.5,72.3,29.89,ENE,72,0.0,0.0,93,0.00,CLR,,0.00,WeatherDisplay:10.37,2013-07-07 11:12:00,
2013-07-07 06:17:00,74.4,72.2,29.89,NNE,25,1.1,0.0,93,0.00,CLR,,0.00,WeatherDisplay:10.37,2013-07-07 11:17:00,
2013-07-07 06:22:00,74.4,72.2,29.89,NE,37,0.0,0.0,93,0.00,CLR,,0.00,WeatherDisplay:10.37,2013-07-07 11:22:00,
2013-07-07 06:27:00,74.4,72.6,29.89,NE,48,0.0,0.0,94,0.00,CLR,,0.00,WeatherDisplay:10.37,2013-07-07 11:27:00,
2013-07-07 06:32:00,74.4,72.6,29.89,ENE,63,0.0,0.0,94,0.00,CLR,,0.00,WeatherDisplay:10.37,2013-07-07 11:32:00,
2013-07-07 06:37:00,74.4,72.6,29.89,ENE,57,0.0,0.0,94,0.00,CLR,,0.00,WeatherDisplay:10.37,2013-07-07 11:37:00,
2013-07-07 06:42:00,74.4,72.6,29.89,NE,46,0.0,0.0,94,0.00,CLR,,0.00,WeatherDisplay:10.37,2013-07-07 11:42:00,
2013-07-07 06:47:00,74.5,72.7,29.89,NE,56,0.0,0.0,94,0.00,CLR,,0.00,WeatherDisplay:10.37,2013-07-07 11:47:00,
2013-07-07 06:52:00,74.5,72.7,29.90,NNE,27,0.0,0.0,94,0.00,CLR,,0.00,WeatherDisplay:10.37,2013-07-07 11:52:00,
2013-07-07 06:57:00,74.7,72.9,29.90,East,98,0.0,0.0,94,0.00,CLR,,0.00,WeatherDisplay:10.37,2013-07-07 11:57:00,
2013-07-07 07:02:00,74.8,73.0,29.90,ENE,78,0.0,0.0,94,0.00,CLR,,0.00,WeatherDisplay:10.37,2013-07-07 12:02:00,
2013-07-07 07:07:00,75.0,72.8,29.90,ENE,75,0.0,0.0,93,0.00,CLR,,0.00,WeatherDisplay:10.37,2013-07-07 12:07:00,
2013-07-07 07:12:00,75.2,73.0,29.90,ESE,105,0.0,0.0,93,0.00,CLR,,0.00,WeatherDisplay:10.37,2013-07-07 12:12:00,
2013-07-07 07:17:00,75.3,72.8,29.91,SE,144,0.0,0.0,92,0.00,CLR,,0.00,WeatherDisplay:10.37,2013-07-07 12:17:00,
2013-07-07 07:22:00,75.5,73.0,29.91,SE,141,0.0,0.0,92,0.00,CLR,,0.00,WeatherDisplay:10.37,2013-07-07 12:22:00,
2013-07-07 07:27:00,75.8,73.3,29.91,East,93,0.0,0.0,92,0.00,CLR,,0.00,WeatherDisplay:10.37,2013-07-07 12:27:00,
2013-07-07 07:32:00,75.9,73.4,29.90,East,82,0.0,0.0,92,0.00,CLR,,0.00,WeatherDisplay:10.37,2013-07-07 12:32:00,
2013-07-07 07:37:00,76.2,73.7,29.90,ENE,65,0.0,0.0,92,0.00,CLR,,0.00,WeatherDisplay:10.37,2013-07-07 12:37:00,
2013-07-07 07:42:00,76.6,74.1,29.91,East,86,0.0,0.0,92,0.00,CLR,,0.00,WeatherDisplay:10.37,2013-07-07 12:42:00,
2013-07-07 07:47:00,76.9,74.1,29.90,ENE,70,2.3,2.3,91,0.00,CLR,,0.00,WeatherDisplay:10.37,2013-07-07 12:47:00,
2013-07-07 07:52:00,77.1,74.3,29.91,NE,54,1.1,1.1,91,0.00,CLR,,0.00,WeatherDisplay:10.37,2013-07-07 12:52:00,
2013-07-07 07:57:00,77.2,74.4,29.91,East,86,3.5,3.5,91,0.00,CLR,,0.00,WeatherDisplay:10.37,2013-07-07 12:57:00,
2013-07-07 08:02:00,77.2,74.4,29.91,ENE,75,4.6,4.6,91,0.00,CLR,,0.00,WeatherDisplay:10.37,2013-07-07 13:02:00,
2013-07-07 08:07:00,77.4,74.6,29.91,ENE,72,8.1,8.1,91,0.00,CLR,,0.00,WeatherDisplay:10.37,2013-07-07 13:07:00,
2013-07-07 08:12:00,77.5,74.7,29.92,East,90,5.8,5.8,91,0.00,CLR,,0.00,WeatherDisplay:10.37,2013-07-07 13:12:00,
2013-07-07 08:17:00,77.9,74.7,29.92,East,81,5.8,5.8,90,0.00,CLR,,0.00,WeatherDisplay:10.37,2013-07-07 13:17:00,
2013-07-07 08:22:00,78.1,74.9,29.92,ENE,78,9.2,9.2,90,0.00,CLR,,0.00,WeatherDisplay:10.37,2013-07-07 13:22:00,
2013-07-07 08:27:00,78.1,74.9,29.92,East,83,6.9,6.9,90,0.00,CLR,,0.00,WeatherDisplay:10.37,2013-07-07 13:27:00,
2013-07-07 08:32:00,78.4,74.9,29.92,East,95,6.9,6.9,89,0.00,CLR,,0.00,WeatherDisplay:10.37,2013-07-07 13:32:00,
2013-07-07 08:37:00,78.6,75.1,29.92,ENE,78,8.1,8.1,89,0.00,CLR,,0.00,WeatherDisplay:10.37,2013-07-07 13:37:00,
2013-07-07 08:42:00,78.5,75.0,29.92,ENE,77,5.8,5.8,89,0.00,CLR,,0.00,WeatherDisplay:10.37,2013-07-07 13:42:00,
2013-07-07 08:47:00,78.6,75.1,29.93,East,84,8.1,8.1,89,0.00,CLR,,0.00,WeatherDisplay:10.37,2013-07-07 13:47:00,
2013-07-07 08:52:00,79.2,75.7,29.93,ESE,119,6.0,6.0,89,0.00,CLR,,0.00,WeatherDisplay:10.37,2013-07-07 13:52:00,
2013-07-07 08:57:00,79.4,75.5,29.93,East,86,7.0,7.0,88,0.00,CLR,,0.00,WeatherDisplay:10.37,2013-07-07 13:57:00,
2013-07-07 09:02:00,79.5,75.3,29.93,ENE,72,8.1,8.1,87,0.00,CLR,,0.00,WeatherDisplay:10.37,2013-07-07 14:02:00,
2013-07-07 09:07:00,79.5,75.6,29.93,East,79,6.9,6.9,88,0.00,CLR,,0.00,WeatherDisplay:10.37,2013-07-07 14:07:00,
2013-07-07 09:12:00,79.9,75.7,29.93,ENE,75,4.6,4.6,87,0.00,CLR,,0.00,WeatherDisplay:10.37,2013-07-07 14:12:00,
2013-07-07 09:17:00,80.3,75.7,29.93,ENE,70,5.8,5.8,86,0.00,CLR,,0.00,WeatherDisplay:10.37,2013-07-07 14:17:00,
2013-07-07 09:22:00,80.3,75.4,29.93,ENE,75,4.6,4.6,85,0.00,CLR,,0.00,WeatherDisplay:10.37,2013-07-07 14:22:00,
2013-07-07 09:27:00,80.3,75.4,29.93,SE,135,3.5,3.5,85,0.00,CLR,,0.00,WeatherDisplay:10.37,2013-07-07 14:27:00,
2013-07-07 09:32:00,80.9,76.0,29.93,ENE,64,6.9,6.9,85,0.00,CLR,,0.00,WeatherDisplay:10.37,2013-07-07 14:32:00,
2013-07-07 09:37:00,81.2,75.5,29.93,ENE,77,3.5,3.5,83,0.00,CLR,,0.00,WeatherDisplay:10.37,2013-07-07 14:37:00,
2013-07-07 09:42:00,81.7,75.7,29.93,ESE,103,8.1,8.1,82,0.00,CLR,,0.00,WeatherDisplay:10.37,2013-07-07 14:42:00,
2013-07-07 09:47:00,82.3,75.9,29.93,East,91,6.9,6.9,81,0.00,CLR,,0.00,WeatherDisplay:10.37,2013-07-07 14:47:00,
2013-07-07 09:52:00,82.2,75.8,29.94,East,88,5.8,5.8,81,0.00,CLR,,0.00,WeatherDisplay:10.37,2013-07-07 14:52:00,
2013-07-07 09:57:00,82.2,75.0,29.93,East,81,8.0,8.0,79,0.00,CLR,,0.00,WeatherDisplay:10.37,2013-07-07 14:57:00,
2013-07-07 10:02:00,82.5,74.9,29.93,ENE,77,8.1,8.1,78,0.00,CLR,,0.00,WeatherDisplay:10.37,2013-07-07 15:02:00,
2013-07-07 10:07:00,82.5,74.9,29.93,ENE,60,5.8,5.8,78,0.00,CLR,,0.00,WeatherDisplay:10.37,2013-07-07 15:07:00,
2013-07-07 10:12:00,82.4,75.2,29.93,ENE,72,1.1,1.1,79,0.00,CLR,,0.00,WeatherDisplay:10.37,2013-07-07 15:12:00,
2013-07-07 10:17:00,82.4,74.8,29.93,East,96,2.3,2.3,78,0.00,CLR,,0.00,WeatherDisplay:10.37,2013-07-07 15:17:00,
2013-07-07 10:22:00,82.5,74.9,29.93,SE,128,2.3,2.3,78,0.00,CLR,,0.00,WeatherDisplay:10.37,2013-07-07 15:22:00,
2013-07-07 10:27:00,82.7,75.1,29.93,South,188,2.3,2.3,78,0.00,CLR,,0.00,WeatherDisplay:10.37,2013-07-07 15:27:00,
2013-07-07 10:32:00,83.0,75.0,29.93,West,263,0.0,0.0,77,0.00,CLR,,0.00,WeatherDisplay:10.37,2013-07-07 15:32:00,
2013-07-07 10:37:00,83.8,75.4,29.93,SSW,200,0.0,0.0,76,0.00,CLR,,0.00,WeatherDisplay:10.37,2013-07-07 15:37:00,
2013-07-07 10:42:00,85.2,75.1,29.93,East,98,10.4,10.4,72,0.00,CLR,,0.00,WeatherDisplay:10.37,2013-07-07 15:42:00,
2013-07-07 10:47:00,84.4,74.8,29.93,ESE,108,2.3,2.3,73,0.00,CLR,,0.00,WeatherDisplay:10.37,2013-07-07 15:47:00,
2013-07-07 10:52:00,84.9,74.9,29.92,SSE,153,5.8,5.8,72,0.00,CLR,,0.00,WeatherDisplay:10.37,2013-07-07 15:52:00,
2013-07-07 10:57:00,85.0,74.5,29.93,East,82,4.6,4.6,71,0.00,CLR,,0.00,WeatherDisplay:10.37,2013-07-07 15:57:00,
2013-07-07 11:02:00,85.3,74.4,29.93,NE,40,10.4,10.4,70,0.00,CLR,,0.00,WeatherDisplay:10.37,2013-07-07 16:02:00,
2013-07-07 11:07:00,85.9,74.5,29.93,East,82,6.9,6.9,69,0.00,CLR,,0.00,WeatherDisplay:10.37,2013-07-07 16:07:00,
2013-07-07 11:12:00,86.0,74.6,29.93,East,88,6.9,6.9,69,0.00,CLR,,0.00,WeatherDisplay:10.37,2013-07-07 16:12:00,
2013-07-07 11:17:00,86.6,74.3,29.93,ENE,77,5.8,5.8,67,0.00,CLR,,0.00,WeatherDisplay:10.37,2013-07-07 16:17:00,
2013-07-07 11:22:00,86.5,74.7,29.93,SE,143,9.2,9.2,68,0.00,CLR,,0.00,WeatherDisplay:10.37,2013-07-07 16:22:00,
2013-07-07 11:27:00,86.0,74.6,29.92,ESE,103,3.5,3.5,69,0.00,CLR,,0.00,WeatherDisplay:10.37,2013-07-07 16:27:00,
2013-07-07 11:32:00,86.5,74.2,29.93,SE,127,10.4,10.4,67,0.00,CLR,,0.00,WeatherDisplay:10.37,2013-07-07 16:32:00,
2013-07-07 11:37:00,87.2,74.5,29.92,South,169,6.9,6.9,66,0.00,CLR,,0.00,WeatherDisplay:10.37,2013-07-07 16:37:00,
2013-07-07 11:42:00,87.1,73.9,29.92,East,82,1.1,0.0,65,0.00,CLR,,0.00,WeatherDisplay:10.37,2013-07-07 16:42:00,
2013-07-07 11:47:00,88.3,73.6,29.92,East,86,13.8,13.8,62,0.00,CLR,,0.00,WeatherDisplay:10.37,2013-07-07 16:47:00,
2013-07-07 11:52:00,88.4,74.2,29.92,SSE,166,9.2,9.2,63,0.00,CLR,,0.00,WeatherDisplay:10.37,2013-07-07 16:52:00,
2013-07-07 11:57:00,89.1,73.4,29.92,SE,146,6.9,6.9,60,0.00,CLR,,0.00,WeatherDisplay:10.37,2013-07-07 16:57:00,
2013-07-07 12:02:00,89.2,72.5,29.92,ESE,113,10.4,10.4,58,0.00,CLR,,0.00,WeatherDisplay:10.37,2013-07-07 17:02:00,
2013-07-07 12:07:00,89.1,73.4,29.92,SSE,166,11.5,11.5,60,0.00,CLR,,0.00,WeatherDisplay:10.37,2013-07-07 17:07:00,
2013-07-07 12:12:00,88.8,73.6,29.91,SE,138,9.2,9.2,61,0.00,CLR,,0.00,WeatherDisplay:10.37,2013-07-07 17:12:00,
2013-07-07 12:17:00,89.1,73.9,29.91,SSE,159,9.2,9.2,61,0.00,CLR,,0.00,WeatherDisplay:10.37,2013-07-07 17:17:00,
2013-07-07 12:22:00,90.0,74.7,29.91,East,100,8.1,8.1,61,0.00,CLR,,0.00,WeatherDisplay:10.37,2013-07-07 17:22:00,
2013-07-07 12:27:00,89.9,74.2,29.91,South,174,9.2,9.2,60,0.00,CLR,,0.00,WeatherDisplay:10.37,2013-07-07 17:27:00,
2013-07-07 12:32:00,89.9,73.7,29.91,SE,136,8.1,8.1,59,0.00,CLR,,0.00,WeatherDisplay:10.37,2013-07-07 17:32:00,
2013-07-07 12:37:00,89.5,73.8,29.91,East,81,0.0,0.0,60,0.00,CLR,,0.00,WeatherDisplay:10.37,2013-07-07 17:37:00,
2013-07-07 12:42:00,89.9,74.2,29.91,SSE,168,7.0,7.0,60,0.00,CLR,,0.00,WeatherDisplay:10.37,2013-07-07 17:42:00,
2013-07-07 12:47:00,90.2,74.4,29.91,SSE,159,7.0,7.0,60,0.00,CLR,,0.00,WeatherDisplay:10.37,2013-07-07 17:47:00,
2013-07-07 12:52:00,90.8,74.0,29.91,ENE,75,10.4,10.4,58,0.00,CLR,,0.00,WeatherDisplay:10.37,2013-07-07 17:52:00,
2013-07-07 12:57:00,91.1,73.2,29.91,SE,127,4.6,4.6,56,0.00,CLR,,0.00,WeatherDisplay:10.37,2013-07-07 17:57:00,
2013-07-07 13:02:00,91.0,73.7,29.90,NNW,345,4.6,4.6,57,0.00,CLR,,0.00,WeatherDisplay:10.37,2013-07-07 18:02:00,
2013-07-07 13:07:00,91.6,72.6,29.90,ENE,75,11.5,11.5,54,0.00,CLR,,0.00,WeatherDisplay:10.37,2013-07-07 18:07:00,
2013-07-07 13:12:00,91.6,73.1,29.90,SSE,154,9.2,9.2,55,0.00,CLR,,0.00,WeatherDisplay:10.37,2013-07-07 18:12:00,
2013-07-07 13:17:00,91.8,73.3,29.90,SSE,155,11.5,11.5,55,0.00,CLR,,0.00,WeatherDisplay:10.37,2013-07-07 18:17:00,
2013-07-07 13:22:00,91.7,72.7,29.89,SSE,150,6.9,6.9,54,0.00,CLR,,0.00,WeatherDisplay:10.37,2013-07-07 18:22:00,
2013-07-07 13:27:00,91.4,72.4,29.90,South,183,4.0,4.0,54,0.00,CLR,,0.00,WeatherDisplay:10.37,2013-07-07 18:27:00,
2013-07-07 13:32:00,91.8,73.3,29.89,ESE,113,7.0,7.0,55,0.00,CLR,,0.00,WeatherDisplay:10.37,2013-07-07 18:32:00,
2013-07-07 13:37:00,91.9,71.8,29.89,East,99,10.4,10.4,52,0.00,CLR,,0.00,WeatherDisplay:10.37,2013-07-07 18:37:00,
2013-07-07 13:42:00,91.8,71.7,29.89,East,84,4.6,4.6,52,0.00,CLR,,0.00,WeatherDisplay:10.37,2013-07-07 18:42:00,
2013-07-07 13:47:00,91.9,71.8,29.89,ENE,69,6.9,6.9,52,0.00,CLR,,0.00,WeatherDisplay:10.37,2013-07-07 18:47:00,
2013-07-07 13:52:00,92.4,72.8,29.89,NE,53,6.9,6.9,53,0.00,CLR,,0.00,WeatherDisplay:10.37,2013-07-07 18:52:00,
2013-07-07 13:57:00,91.9,71.8,29.89,ENE,76,4.6,4.6,52,0.00,CLR,,0.00,WeatherDisplay:10.37,2013-07-07 18:57:00,
2013-07-07 14:02:00,91.6,72.0,29.89,East,84,5.8,5.8,53,0.00,CLR,,0.00,WeatherDisplay:10.37,2013-07-07 19:02:00,
2013-07-07 14:07:00,91.6,71.5,29.89,ESE,105,12.7,12.7,52,0.00,CLR,,0.00,WeatherDisplay:10.37,2013-07-07 19:07:00,
2013-07-07 14:12:00,91.6,71.5,29.88,ESE,113,9.2,9.2,52,0.00,CLR,,0.00,WeatherDisplay:10.37,2013-07-07 19:12:00,
2013-07-07 14:17:00,92.3,71.6,29.88,NE,54,10.4,10.4,51,0.00,CLR,,0.00,WeatherDisplay:10.37,2013-07-07 19:17:00,
2013-07-07 14:22:00,92.5,71.2,29.88,East,85,11.5,11.5,50,0.00,CLR,,0.00,WeatherDisplay:10.37,2013-07-07 19:22:00,
2013-07-07 14:27:00,93.1,71.1,29.88,East,101,9.2,9.2,49,0.00,CLR,,0.00,WeatherDisplay:10.37,2013-07-07 19:27:00,
2013-07-07 14:32:00,93.2,71.2,29.88,SE,131,9.2,9.2,49,0.00,CLR,,0.00,WeatherDisplay:10.37,2013-07-07 19:32:00,
2013-07-07 14:37:00,93.5,71.5,29.87,NE,55,10.4,10.4,49,0.00,CLR,,0.00,WeatherDisplay:10.37,2013-07-07 19:37:00,
2013-07-07 14:42:00,93.7,71.7,29.87,ESE,103,8.1,8.1,49,0.00,CLR,,0.00,WeatherDisplay:10.37,2013-07-07 19:42:00,
2013-07-07 14:47:00,93.2,71.2,29.87,SE,132,11.5,11.5,49,0.00,CLR,,0.00,WeatherDisplay:10.37,2013-07-07 19:47:00,
2013-07-07 14:52:00,93.2,71.8,29.87,East,84,10.0,10.0,50,0.00,CLR,,0.00,WeatherDisplay:10.37,2013-07-07 19:52:00,
2013-07-07 14:57:00,93.4,72.0,29.86,East,84,3.5,3.5,50,0.00,CLR,,0.00,WeatherDisplay:10.37,2013-07-07 19:57:00,
2013-07-07 15:02:00,94.1,71.4,29.86,ENE,72,10.4,10.4,48,0.00,CLR,,0.00,WeatherDisplay:10.37,2013-07-07 20:02:00,
2013-07-07 15:07:00,93.9,71.2,29.86,ENE,77,4.6,4.6,48,0.00,CLR,,0.00,WeatherDisplay:10.37,2013-07-07 20:07:00,
2013-07-07 15:12:00,93.9,71.2,29.86,ENE,68,3.5,3.5,48,0.00,CLR,,0.00,WeatherDisplay:10.37,2013-07-07 20:12:00,
2013-07-07 15:17:00,94.7,71.3,29.86,ENE,68,6.9,6.9,47,0.00,CLR,,0.00,WeatherDisplay:10.37,2013-07-07 20:17:00,
2013-07-07 15:22:00,94.5,71.8,29.86,SE,130,1.1,1.1,48,0.00,CLR,,0.00,WeatherDisplay:10.37,2013-07-07 20:22:00,
2013-07-07 15:27:00,93.8,71.7,29.85,East,81,4.6,4.6,49,0.00,CLR,,0.00,WeatherDisplay:10.37,2013-07-07 20:27:00,
2013-07-07 15:32:00,93.5,70.9,29.85,SE,145,6.9,6.9,48,0.00,CLR,,0.00,WeatherDisplay:10.37,2013-07-07 20:32:00,
2013-07-07 15:37:00,94.5,71.2,29.85,East,82,11.5,11.5,47,0.00,CLR,,0.00,WeatherDisplay:10.37,2013-07-07 20:37:00,
2013-07-07 15:42:00,94.0,71.3,29.85,ENE,70,9.2,9.2,48,0.00,CLR,,0.00,WeatherDisplay:10.37,2013-07-07 20:42:00,
2013-07-07 15:47:00,93.5,71.5,29.85,East,89,3.5,3.5,49,0.00,CLR,,0.00,WeatherDisplay:10.37,2013-07-07 20:47:00,
2013-07-07 15:52:00,93.4,71.4,29.84,NE,49,4.6,4.6,49,0.00,CLR,,0.00,WeatherDisplay:10.37,2013-07-07 20:52:00,
2013-07-07 15:57:00,93.3,71.9,29.84,ENE,72,4.6,4.6,50,0.00,CLR,,0.00,WeatherDisplay:10.37,2013-07-07 20:57:00,
2013-07-07 16:02:00,93.5,70.9,29.85,ESE,117,10.4,10.4,48,0.00,CLR,,0.00,WeatherDisplay:10.37,2013-07-07 21:02:00,
2013-07-07 16:07:00,93.1,71.1,29.85,SE,124,9.2,9.2,49,0.00,CLR,,0.00,WeatherDisplay:10.37,2013-07-07 21:07:00,
2013-07-07 16:12:00,92.9,70.9,29.85,ESE,111,6.9,6.9,49,0.00,CLR,,0.00,WeatherDisplay:10.37,2013-07-07 21:12:00,
2013-07-07 16:17:00,93.0,71.0,29.85,ESE,108,8.1,8.1,49,0.00,CLR,,0.00,WeatherDisplay:10.37,2013-07-07 21:17:00,
2013-07-07 16:22:00,93.4,70.8,29.84,East,99,6.9,6.9,48,0.00,CLR,,0.00,WeatherDisplay:10.37,2013-07-07 21:22:00,
2013-07-07 16:27:00,94.6,71.9,29.84,SSE,159,5.8,5.8,48,0.00,CLR,,0.00,WeatherDisplay:10.37,2013-07-07 21:27:00,
2013-07-07 16:32:00,95.7,71.0,29.84,SE,131,7.0,7.0,45,0.00,CLR,,0.00,WeatherDisplay:10.37,2013-07-07 21:32:00,
2013-07-07 16:37:00,96.2,70.7,29.84,SSE,168,9.2,9.2,44,0.00,CLR,,0.00,WeatherDisplay:10.37,2013-07-07 21:37:00,
2013-07-07 16:42:00,96.9,70.7,29.83,South,172,9.2,9.2,43,0.00,CLR,,0.00,WeatherDisplay:10.37,2013-07-07 21:42:00,
2013-07-07 16:47:00,97.4,70.5,29.83,East,95,6.9,6.9,42,0.00,CLR,,0.00,WeatherDisplay:10.37,2013-07-07 21:47:00,
2013-07-07 16:52:00,95.5,70.1,29.84,ESE,117,31.1,31.1,44,0.01,RA,,0.01,WeatherDisplay:10.37,2013-07-07 21:52:00,
2013-07-07 16:57:00,88.8,72.6,29.84,SE,124,11.5,11.5,59,0.03,RA,,0.03,WeatherDisplay:10.37,2013-07-07 21:57:00,
2013-07-07 17:02:00,87.7,72.6,29.84,SW,225,6.9,6.9,61,0.03,RA,,0.03,WeatherDisplay:10.37,2013-07-07 22:02:00,
2013-07-07 17:07:00,86.9,73.3,29.84,SSW,211,5.0,5.0,64,0.03,,,0.03,WeatherDisplay:10.37,2013-07-07 22:07:00,
2013-07-07 17:12:00,87.2,71.6,29.84,SSW,210,3.5,3.5,60,0.03,CLR,,0.03,WeatherDisplay:10.37,2013-07-07 22:12:00,
2013-07-07 17:17:00,87.1,73.9,29.84,SE,124,11.5,11.5,65,0.03,CLR,,0.03,WeatherDisplay:10.37,2013-07-07 22:17:00,
2013-07-07 17:22:00,86.2,72.6,29.85,SE,132,16.1,16.1,64,0.03,CLR,,0.03,WeatherDisplay:10.37,2013-07-07 22:22:00,
2013-07-07 17:27:00,85.0,71.9,29.86,SE,143,16.1,16.1,65,0.03,CLR,,0.03,WeatherDisplay:10.37,2013-07-07 22:27:00,
2013-07-07 17:32:00,83.4,73.8,29.86,SE,128,18.4,18.4,73,0.03,CLR,,0.03,WeatherDisplay:10.37,2013-07-07 22:32:00,
2013-07-07 17:37:00,81.7,74.5,29.86,South,176,15.0,15.0,79,0.03,CLR,,0.03,WeatherDisplay:10.37,2013-07-07 22:37:00,
2013-07-07 17:42:00,81.1,75.1,29.86,SSE,148,15.0,15.0,82,0.03,CLR,,0.03,WeatherDisplay:10.37,2013-07-07 22:42:00,
2013-07-07 17:47:00,81.0,75.0,29.86,SE,130,16.1,16.1,82,0.03,CLR,,0.03,WeatherDisplay:10.37,2013-07-07 22:47:00,
2013-07-07 17:52:00,80.9,75.2,29.87,SSE,149,19.6,19.6,83,0.02,CLR,,0.03,WeatherDisplay:10.37,2013-07-07 22:52:00,
2013-07-07 17:57:00,80.9,75.2,29.87,East,96,12.7,12.7,83,0.00,CLR,,0.03,WeatherDisplay:10.37,2013-07-07 22:57:00,
2013-07-07 18:02:00,80.9,75.2,29.87,SSE,152,9.2,9.2,83,0.00,CLR,,0.03,WeatherDisplay:10.37,2013-07-07 23:02:00,
2013-07-07 18:07:00,80.9,75.2,29.87,SSE,153,11.5,11.5,83,0.00,CLR,,0.03,WeatherDisplay:10.37,2013-07-07 23:07:00,
2013-07-07 18:12:00,81.0,75.3,29.87,SSE,151,8.1,8.1,83,0.00,CLR,,0.03,WeatherDisplay:10.37,2013-07-07 23:12:00,
2013-07-07 18:17:00,80.8,74.8,29.87,SSE,162,10.4,10.4,82,0.00,CLR,,0.03,WeatherDisplay:10.37,2013-07-07 23:17:00,
2013-07-07 18:22:00,80.7,74.3,29.88,SSE,163,10.4,10.4,81,0.00,CLR,,0.03,WeatherDisplay:10.37,2013-07-07 23:22:00,
2013-07-07 18:27:00,80.7,74.3,29.88,SE,131,5.8,5.8,81,0.00,CLR,,0.03,WeatherDisplay:10.37,2013-07-07 23:27:00,
2013-07-07 18:32:00,80.8,74.4,29.87,SE,143,9.2,9.2,81,0.00,CLR,,0.03,WeatherDisplay:10.37,2013-07-07 23:32:00,
2013-07-07 18:37:00,80.9,74.5,29.87,South,169,12.7,12.7,81,0.00,CLR,,0.03,WeatherDisplay:10.37,2013-07-07 23:37:00,
2013-07-07 18:42:00,81.1,74.7,29.88,SSE,156,6.9,6.9,81,0.00,CLR,,0.03,WeatherDisplay:10.37,2013-07-07 23:42:00,
2013-07-07 18:47:00,81.2,74.4,29.88,SE,128,9.2,9.2,80,0.00,CLR,,0.03,WeatherDisplay:10.37,2013-07-07 23:47:00,
2013-07-07 18:52:00,81.4,74.6,29.88,SE,142,6.9,6.9,80,0.00,CLR,,0.03,WeatherDisplay:10.37,2013-07-07 23:52:00,
2013-07-07 18:57:00,81.5,74.4,29.89,SSE,166,10.4,10.4,79,0.00,CLR,,0.03,WeatherDisplay:10.37,2013-07-07 23:57:00,
2013-07-07 19:02:00,81.6,74.8,29.88,South,191,5.8,5.8,80,0.00,CLR,,0.03,WeatherDisplay:10.37,2013-07-08 00:02:00,
2013-07-07 19:07:00,81.5,74.7,29.88,SSE,165,8.0,8.0,80,0.00,CLR,,0.03,WeatherDisplay:10.37,2013-07-08 00:07:00,
2013-07-07 19:12:00,81.5,75.1,29.89,SSE,154,5.8,5.8,81,0.00,CLR,,0.03,WeatherDisplay:10.37,2013-07-08 00:12:00,
2013-07-07 19:17:00,81.5,75.1,29.88,South,172,4.6,4.6,81,0.00,CLR,,0.03,WeatherDisplay:10.37,2013-07-08 00:17:00,
2013-07-07 19:22:00,81.5,75.1,29.88,South,172,3.5,3.6,81,0.00,CLR,,0.03,WeatherDisplay:10.37,2013-07-08 00:22:00,
2013-07-07 19:27:00,81.5,75.1,29.88,SSE,159,3.5,3.5,81,0.00,CLR,,0.03,WeatherDisplay:10.37,2013-07-08 00:27:00,
2013-07-07 19:32:00,81.6,75.2,29.88,SSE,166,3.5,3.5,81,0.00,CLR,,0.03,WeatherDisplay:10.37,2013-07-08 00:32:00,
2013-07-07 19:37:00,81.7,75.3,29.88,South,179,3.5,3.5,81,0.00,CLR,,0.03,WeatherDisplay:10.37,2013-07-08 00:37:00,
2013-07-07 19:42:00,81.7,75.7,29.88,SE,145,2.3,2.3,82,0.00,CLR,,0.03,WeatherDisplay:10.37,2013-07-08 00:42:00,
2013-07-07 19:47:00,81.6,75.6,29.88,SE,133,3.5,3.5,82,0.00,CLR,,0.03,WeatherDisplay:10.37,2013-07-08 00:47:00,
2013-07-07 19:52:00,81.4,75.4,29.89,SE,124,4.6,4.6,82,0.00,CLR,,0.03,WeatherDisplay:10.37,2013-07-08 00:52:00,
2013-07-07 19:57:00,81.4,75.4,29.89,SE,139,3.5,3.5,82,0.00,CLR,,0.03,WeatherDisplay:10.37,2013-07-08 00:57:00,
2013-07-07 20:02:00,81.4,75.0,29.89,SE,143,4.6,4.6,81,0.00,CLR,,0.03,WeatherDisplay:10.37,2013-07-08 01:02:00,
2013-07-07 20:07:00,81.5,75.1,29.89,ESE,111,3.5,3.5,81,0.00,CLR,,0.03,WeatherDisplay:10.37,2013-07-08 01:07:00,
2013-07-07 20:12:00,81.5,74.7,29.89,ESE,106,3.5,3.5,80,0.00,CLR,,0.03,WeatherDisplay:10.37,2013-07-08 01:12:00,
2013-07-07 20:17:00,81.5,74.7,29.89,SE,143,9.0,9.0,80,0.00,CLR,,0.03,WeatherDisplay:10.37,2013-07-08 01:17:00,
2013-07-07 20:22:00,81.5,74.4,29.90,SSE,150,9.2,9.2,79,0.00,CLR,,0.03,WeatherDisplay:10.37,2013-07-08 01:22:00,
2013-07-07 20:27:00,81.4,74.6,29.90,ESE,119,8.1,8.1,80,0.00,CLR,,0.03,WeatherDisplay:10.37,2013-07-08 01:27:00,
2013-07-07 20:32:00,81.2,74.4,29.90,ESE,112,11.5,11.5,80,0.00,CLR,,0.03,WeatherDisplay:10.37,2013-07-08 01:32:00,
2013-07-07 20:37:00,81.1,74.3,29.90,ESE,114,8.1,8.1,80,0.00,CLR,,0.03,WeatherDisplay:10.37,2013-07-08 01:37:00,
2013-07-07 20:42:00,81.0,74.6,29.90,ESE,109,4.6,4.6,81,0.00,CLR,,0.03,WeatherDisplay:10.37,2013-07-08 01:42:00,
2013-07-07 20:47:00,80.8,74.4,29.90,ESE,121,5.8,5.8,81,0.00,CLR,,0.03,WeatherDisplay:10.37,2013-07-08 01:47:00,
2013-07-07 20:52:00,80.8,74.8,29.90,ESE,120,4.6,4.6,82,0.00,CLR,,0.03,WeatherDisplay:10.37,2013-07-08 01:52:00,
2013-07-07 20:57:00,80.7,74.7,29.90,ESE,121,4.6,4.6,82,0.00,CLR,,0.03,WeatherDisplay:10.37,2013-07-08 01:57:00,
2013-07-07 21:02:00,80.5,74.5,29.90,East,82,3.5,3.5,82,0.00,CLR,,0.03,WeatherDisplay:10.37,2013-07-08 02:02:00,
2013-07-07 21:07:00,80.4,74.4,29.90,East,101,3.5,3.5,82,0.00,CLR,,0.03,WeatherDisplay:10.37,2013-07-08 02:07:00,
2013-07-07 21:12:00,80.3,74.7,29.91,ESE,116,0.0,0.0,83,0.00,CLR,,0.03,WeatherDisplay:10.37,2013-07-08 02:12:00,
2013-07-07 21:17:00,80.2,74.6,29.91,ESE,114,0.0,0.0,83,0.00,CLR,,0.03,WeatherDisplay:10.37,2013-07-08 02:17:00,
2013-07-07 21:22:00,80.1,74.5,29.91,East,101,0.0,0.0,83,0.00,CLR,,0.03,WeatherDisplay:10.37,2013-07-08 02:22:00,
2013-07-07 21:27:00,79.9,74.3,29.91,ESE,121,0.0,0.0,83,0.00,CLR,,0.03,WeatherDisplay:10.37,2013-07-08 02:27:00,
2013-07-07 21:32:00,79.9,74.6,29.91,East,98,0.0,0.0,84,0.00,CLR,,0.03,WeatherDisplay:10.37,2013-07-08 02:32:00,
2013-07-07 21:37:00,79.8,74.5,29.91,ESE,118,0.0,0.0,84,0.00,CLR,,0.03,WeatherDisplay:10.37,2013-07-08 02:37:00,
2013-07-07 21:42:00,79.6,74.3,29.91,ESE,112,0.0,0.0,84,0.00,CLR,,0.03,WeatherDisplay:10.37,2013-07-08 02:42:00,
2013-07-07 21:47:00,79.6,74.3,29.91,ESE,109,0.0,0.0,84,0.00,CLR,,0.03,WeatherDisplay:10.37,2013-07-08 02:47:00,
2013-07-07 21:52:00,79.4,74.5,29.92,East,99,0.0,0.0,85,0.00,CLR,,0.03,WeatherDisplay:10.37,2013-07-08 02:52:00,
2013-07-07 21:57:00,79.4,74.5,29.92,ESE,110,0.0,0.0,85,0.00,CLR,,0.03,WeatherDisplay:10.37,2013-07-08 02:57:00,
2013-07-07 22:02:00,79.3,74.4,29.92,East,98,0.0,0.0,85,0.00,CLR,,0.03,WeatherDisplay:10.37,2013-07-08 03:02:00,
2013-07-07 22:07:00,79.2,74.3,29.92,East,101,0.0,0.0,85,0.00,CLR,,0.03,WeatherDisplay:10.37,2013-07-08 03:07:00,
2013-07-07 22:12:00,79.2,74.6,29.92,ESE,112,0.0,0.0,86,0.00,CLR,,0.03,WeatherDisplay:10.37,2013-07-08 03:12:00,
2013-07-07 22:17:00,79.2,74.6,29.93,East,97,3.5,3.5,86,0.00,CLR,,0.03,WeatherDisplay:10.37,2013-07-08 03:17:00,
2013-07-07 22:22:00,79.2,74.6,29.92,ESE,106,4.6,4.6,86,0.00,CLR,,0.03,WeatherDisplay:10.37,2013-07-08 03:22:00,
2013-07-07 22:27:00,79.2,74.6,29.93,East,95,5.8,5.8,86,0.00,CLR,,0.03,WeatherDisplay:10.37,2013-07-08 03:27:00,
2013-07-07 22:32:00,79.1,74.5,29.93,SE,124,4.6,4.8,86,0.00,CLR,,0.03,WeatherDisplay:10.37,2013-07-08 03:32:00,
2013-07-07 22:37:00,79.2,74.6,29.93,ESE,114,8.1,8.1,86,0.00,CLR,,0.03,WeatherDisplay:10.37,2013-07-08 03:37:00,
2013-07-07 22:42:00,79.2,74.6,29.93,ESE,116,6.9,6.9,86,0.00,CLR,,0.03,WeatherDisplay:10.37,2013-07-08 03:42:00,
2013-07-07 22:47:00,79.1,74.5,29.93,SE,127,5.8,5.8,86,0.00,CLR,,0.03,WeatherDisplay:10.37,2013-07-08 03:47:00,
2013-07-07 22:52:00,79.1,74.5,29.93,SE,132,5.8,5.8,86,0.00,CLR,,0.03,WeatherDisplay:10.37,2013-07-08 03:52:00,
2013-07-07 22:57:00,79.2,74.6,29.93,ESE,116,4.6,4.6,86,0.00,CLR,,0.03,WeatherDisplay:10.37,2013-07-08 03:57:00,
2013-07-07 23:01:00,79.1,74.5,29.93,East,99,4.6,4.6,86,0.00,CLR,,0.03,WeatherDisplay:10.37,2013-07-08 04:01:00,
2013-07-07 23:06:00,79.1,74.5,29.93,SE,139,3.5,3.5,86,0.00,CLR,,0.03,WeatherDisplay:10.37,2013-07-08 04:06:00,
2013-07-07 23:11:00,79.1,74.5,29.93,SE,138,3.5,3.5,86,0.00,CLR,,0.03,WeatherDisplay:10.37,2013-07-08 04:11:00,
2013-07-07 23:16:00,79.0,74.5,29.94,SE,129,4.6,4.6,86,0.00,CLR,,0.03,WeatherDisplay:10.37,2013-07-08 04:16:00,
2013-07-07 23:21:00,79.1,74.5,29.94,SE,134,6.0,6.0,86,0.00,CLR,,0.03,WeatherDisplay:10.37,2013-07-08 04:21:00,
2013-07-07 23:26:00,79.1,74.5,29.94,SE,134,3.5,3.5,86,0.00,CLR,,0.03,WeatherDisplay:10.37,2013-07-08 04:26:00,
2013-07-07 23:31:00,79.0,74.5,29.94,SE,127,4.6,4.6,86,0.00,CLR,,0.03,WeatherDisplay:10.37,2013-07-08 04:31:00,
2013-07-07 23:36:00,79.0,74.5,29.94,SE,129,3.5,3.5,86,0.00,CLR,,0.03,WeatherDisplay:10.37,2013-07-08 04:36:00,
2013-07-07 23:41:00,79.0,74.5,29.94,ESE,120,3.5,3.5,86,0.00,CLR,,0.03,WeatherDisplay:10.37,2013-07-08 04:41:00,
2013-07-07 23:46:00,79.0,74.5,29.94,ESE,114,3.5,3.5,86,0.00,CLR,,0.03,WeatherDisplay:10.37,2013-07-08 04:46:00,
2013-07-07 23:51:00,78.9,74.4,29.94,SE,146,2.3,2.3,86,0.00,CLR,,0.03,WeatherDisplay:10.37,2013-07-08 04:51:00,
2013-07-07 23:56:00,78.8,74.3,29.94,SSE,148,2.3,2.3,86,0.00,CLR,,0.03,WeatherDisplay:10.37,2013-07-08 04:56:00,